カタログに戻る

FENGYUN 1C DEB

運用中PO
NORAD 30418·DEBRIS·🇨🇳 China

打ち上げ May 10, 1999 から Taiyuan Satellite Launch Center

Loading…

次のパス (今後24時間)

TLE

最新Source: Space-Track

元期: Sep 14, 2026, 19:26 UTC

1 30418U 99025AEH 26257.81034100  .00003330  00000-0  33823-3 0  9991
2 30418  98.8514  93.6430 0102924 315.0655  56.0901 14.87802814 46937

AllMySatでFENGYUN 1C DEBをリアルタイム追跡

Download on the App Store